When you browse on this site, cookies collect data to enhance your experience and personalize the content and advertising you see.
Visit our Privacy Policy to learn more. By continuing to use the site, you agree to this use of cookies and data.
  • In Portugal
  • List of Countries
  • For 7 days
  • Water Temperature
  • Weather Map
  • Weather Widgets
  • user-avatar
    Login

    Hourly Weather Sarafovo

    Today, 14 November, Thursday

    Time Temperature Precipitation Wind Pressure Humidity
    00:00 +19°C° 0 mm 1 mps 755 mmHg 67%
    01:00 +18°C° 0 mm 1 mps 755 mmHg 69%
    02:00 +17°C° 0 mm 2 mps 755 mmHg 72%
    03:00 +17°C° 0 mm 2 mps 755 mmHg 74%
    04:00 +17°C° 0 mm 2 mps 754 mmHg 77%
    05:00 +16°C° 0 mm 2 mps 754 mmHg 79%
    06:00 +16°C° 0 mm 2 mps 754 mmHg 82%
    07:00 +16°C° 0 mm 2 mps 754 mmHg 84%
    08:00 +16°C° 0 mm 2 mps 755 mmHg 86%
    09:00 +17°C° 0 mm 2 mps 754 mmHg 83%
    10:00 +18°C° 0 mm 2 mps 754 mmHg 80%
    11:00 +19°C° 0 mm 2 mps 754 mmHg 77%
    12:00 +19°C° 0 mm 2 mps 754 mmHg 73%
    13:00 +20°C° 0 mm 2 mps 754 mmHg 69%
    14:00 +21°C° 0 mm 2 mps 754 mmHg 64%
    15:00 +20°C° 0 mm 2 mps 754 mmHg 68%
    16:00 +19°C° 0 mm 2 mps 754 mmHg 72%
    17:00 +18°C° 0 mm 2 mps 754 mmHg 76%
    18:00 +18°C° 0.2 mm 2 mps 754 mmHg 77%
    19:00 +18°C° 0.2 mm 3 mps 754 mmHg 78%
    20:00 +17°C° 0.2 mm 3 mps 755 mmHg 79%
    21:00 +17°C° 0.1 mm 3 mps 755 mmHg 79%
    22:00 +17°C° 0.1 mm 3 mps 755 mmHg 80%
    23:00 +17°C° 0.1 mm 3 mps 755 mmHg 81%

    Tomorrow, 15 November, Friday

    Time Temperature Precipitation Wind Pressure Humidity
    00:00 +16°C° 0 mm 3 mps 755 mmHg 83%
    01:00 +16°C° 0 mm 3 mps 756 mmHg 85%
    02:00 +14°C° 0 mm 3 mps 756 mmHg 87%
    03:00 +15°C° 0 mm 2 mps 756 mmHg 89%
    04:00 +14°C° 0 mm 2 mps 756 mmHg 90%
    05:00 +14°C° 0 mm 2 mps 757 mmHg 92%
    06:00 +14°C° 0 mm 2 mps 757 mmHg 92%
    07:00 +14°C° 0 mm 1 mps 758 mmHg 91%
    08:00 +14°C° 0 mm 1 mps 758 mmHg 91%
    09:00 +16°C° 0 mm 2 mps 758 mmHg 82%
    10:00 +18°C° 0 mm 2 mps 759 mmHg 73%
    11:00 +19°C° 0 mm 2 mps 759 mmHg 65%
    12:00 +20°C° 0 mm 2 mps 759 mmHg 61%
    13:00 +21°C° 0 mm 2 mps 759 mmHg 58%
    14:00 +21°C° 0 mm 3 mps 759 mmHg 55%
    15:00 +20°C° 0 mm 2 mps 759 mmHg 60%
    16:00 +19°C° 0 mm 2 mps 760 mmHg 66%
    17:00 +18°C° 0 mm 2 mps 760 mmHg 72%
    18:00 +17°C° 0 mm 2 mps 760 mmHg 74%
    19:00 +17°C° 0 mm 2 mps 761 mmHg 77%
    20:00 +16°C° 0 mm 1 mps 761 mmHg 80%
    21:00 +16°C° 0 mm 1 mps 761 mmHg 80%
    22:00 +16°C° 0 mm 1 mps 761 mmHg 81%
    23:00 +15°C° 0 mm 1 mps 762 mmHg 81%

    Day after tomorrow, 16 November, Saturday

    Time Temperature Precipitation Wind Pressure Humidity
    00:00 +15°C° 0 mm 1 mps 762 mmHg 82%
    01:00 +15°C° 0 mm 1 mps 762 mmHg 82%
    02:00 +15°C° 0 mm 1 mps 762 mmHg 82%
    03:00 +14°C° 0 mm 1 mps 762 mmHg 82%
    04:00 +14°C° 0 mm 1 mps 762 mmHg 83%
    05:00 +14°C° 0 mm 1 mps 762 mmHg 83%
    06:00 +14°C° 0 mm 1 mps 762 mmHg 82%
    07:00 +13°C° 0 mm 0 mps 763 mmHg 81%
    08:00 +13°C° 0 mm 0 mps 763 mmHg 79%
    09:00 +16°C° 0 mm 1 mps 763 mmHg 72%
    10:00 +19°C° 0 mm 1 mps 763 mmHg 64%
    11:00 +21°C° 0 mm 1 mps 763 mmHg 57%
    12:00 +20°C° 0 mm 2 mps 763 mmHg 56%
    13:00 +21°C° 0 mm 3 mps 763 mmHg 55%
    14:00 +21°C° 0 mm 3 mps 762 mmHg 55%
    15:00 +20°C° 0 mm 3 mps 762 mmHg 64%
    16:00 +18°C° 0 mm 3 mps 762 mmHg 73%
    17:00 +17°C° 0 mm 3 mps 762 mmHg 82%
    18:00 +16°C° 0 mm 3 mps 762 mmHg 86%
    19:00 +16°C° 0 mm 2 mps 763 mmHg 89%
    20:00 +15°C° 0 mm 2 mps 763 mmHg 93%
    21:00 +15°C° 0 mm 2 mps 763 mmHg 93%
    22:00 +15°C° 0 mm 2 mps 763 mmHg 93%
    23:00 +15°C° 0 mm 2 mps 763 mmHg 94%

    17 November, Sunday

    Time Temperature Precipitation Wind Pressure Humidity
    00:00 +15°C° 0 mm 2 mps 763 mmHg 93%
    01:00 +15°C° 0 mm 2 mps 763 mmHg 93%
    02:00 +14°C° 0 mm 2 mps 762 mmHg 93%
    03:00 +14°C° 0 mm 2 mps 762 mmHg 94%
    04:00 +14°C° 0 mm 2 mps 762 mmHg 94%
    05:00 +14°C° 0 mm 2 mps 762 mmHg 94%
    06:00 +14°C° 0 mm 2 mps 762 mmHg 94%
    07:00 +13°C° 0 mm 3 mps 762 mmHg 94%
    08:00 +13°C° 0 mm 3 mps 762 mmHg 94%
    09:00 +16°C° 0 mm 3 mps 762 mmHg 87%
    10:00 +17°C° 0 mm 3 mps 762 mmHg 79%
    11:00 +18°C° 0 mm 4 mps 762 mmHg 71%
    12:00 +19°C° 0 mm 4 mps 761 mmHg 70%
    13:00 +19°C° 0 mm 4 mps 761 mmHg 68%
    14:00 +19°C° 0 mm 4 mps 761 mmHg 66%
    15:00 +18°C° 0 mm 3 mps 761 mmHg 73%
    16:00 +17°C° 0 mm 3 mps 761 mmHg 81%
    17:00 +16°C° 0 mm 3 mps 760 mmHg 88%
    18:00 +15°C° 0 mm 2 mps 761 mmHg 90%
    19:00 +15°C° 0 mm 2 mps 761 mmHg 93%
    20:00 +15°C° 0 mm 2 mps 761 mmHg 95%
    21:00 +15°C° 0 mm 2 mps 761 mmHg 95%
    22:00 +15°C° 0 mm 2 mps 761 mmHg 95%
    23:00 +15°C° 0 mm 2 mps 760 mmHg 96%

    18 November, Monday

    Time Temperature Precipitation Wind Pressure Humidity
    00:00 +15°C° 0 mm 1 mps 760 mmHg 95%
    01:00 +15°C° 0 mm 1 mps 760 mmHg 94%
    02:00 +15°C° 0 mm 1 mps 760 mmHg 93%
    03:00 +15°C° 0 mm 1 mps 759 mmHg 93%
    04:00 +14°C° 0 mm 1 mps 759 mmHg 94%
    05:00 +14°C° 0 mm 1 mps 759 mmHg 94%
    06:00 +14°C° 0 mm 1 mps 759 mmHg 94%
    07:00 +14°C° 0 mm 1 mps 759 mmHg 93%
    08:00 +14°C° 0 mm 1 mps 759 mmHg 93%
    09:00 +16°C° 0 mm 2 mps 759 mmHg 84%
    10:00 +18°C° 0 mm 2 mps 759 mmHg 74%
    11:00 +19°C° 0 mm 2 mps 760 mmHg 65%
    12:00 +20°C° 0 mm 3 mps 759 mmHg 61%
    13:00 +21°C° 0 mm 3 mps 759 mmHg 57%
    14:00 +21°C° 0 mm 4 mps 759 mmHg 53%
    15:00 +20°C° 0 mm 3 mps 759 mmHg 58%
    16:00 +19°C° 0 mm 3 mps 759 mmHg 63%
    17:00 +18°C° 0 mm 2 mps 759 mmHg 68%
    18:00 +18°C° 0 mm 2 mps 760 mmHg 71%
    19:00 +17°C° 0 mm 2 mps 760 mmHg 73%
    20:00 +16°C° 0 mm 2 mps 760 mmHg 76%
    21:00 +16°C° 0 mm 2 mps 760 mmHg 79%
    22:00 +16°C° 0 mm 2 mps 760 mmHg 82%
    23:00 +15°C° 0 mm 2 mps 760 mmHg 85%

    19 November, Tuesday

    Time Temperature Precipitation Wind Pressure Humidity
    00:00 +15°C° 0 mm 2 mps 761 mmHg 86%
    01:00 +15°C° 0 mm 1 mps 761 mmHg 88%
    02:00 +15°C° 0 mm 1 mps 761 mmHg 89%
    03:00 +15°C° 0 mm 1 mps 761 mmHg 90%
    04:00 +14°C° 0 mm 1 mps 761 mmHg 91%
    05:00 +14°C° 0 mm 1 mps 761 mmHg 92%
    06:00 +14°C° 0 mm 1 mps 761 mmHg 92%
    07:00 +15°C° 0 mm 1 mps 761 mmHg 93%
    08:00 +15°C° 0 mm 1 mps 761 mmHg 93%
    09:00 +16°C° 0 mm 2 mps 761 mmHg 85%
    10:00 +18°C° 0 mm 2 mps 761 mmHg 77%
    11:00 +20°C° 0 mm 2 mps 761 mmHg 70%
    12:00 +20°C° 0 mm 3 mps 761 mmHg 65%
    13:00 +21°C° 0 mm 3 mps 760 mmHg 61%
    14:00 +22°C° 0 mm 3 mps 760 mmHg 56%
    15:00 +20°C° 0 mm 3 mps 760 mmHg 61%
    16:00 +19°C° 0 mm 2 mps 760 mmHg 66%
    17:00 +18°C° 0 mm 2 mps 760 mmHg 71%
    18:00 +18°C° 0 mm 2 mps 760 mmHg 74%
    19:00 +17°C° 0 mm 2 mps 760 mmHg 76%
    20:00 +17°C° 0 mm 2 mps 760 mmHg 79%
    21:00 +16°C° 0 mm 2 mps 760 mmHg 80%
    22:00 +16°C° 0 mm 2 mps 761 mmHg 82%
    23:00 +16°C° 0 mm 2 mps 761 mmHg 84%
    Show more